Location: *
(50.2903°S, 172.5375°W)
Time: 12:45:44
(UTC+00:00)

FALCON 9 DEB - Pass Details

Date: 17 November 2019
Orbit: 262 x 278 km, 53.0° (Epoch: 05 December)

Event Time Altitude Azimuth Distance (km) Brightness Sun altitude
Exits shadow 13:20:03 11° 53° (NE) 1,065 5.0 -15.4°
Drops below altitude 10° 13:20:08 10° 54° (NE) 1,097 5.1 -15.4°
Sets 13:22:02 0° 58° (ENE) 1,899 6.4 -15.3°
